This is the latest recevied weather packets stored in our database for station/object KI5NYZ. If no packets are shown the sender has not sent any weather packets the latest 10 day(s).
| Time | Temp. | Humidity | Pressure | Rain* | Wind** | Luminosity | Snow |
|---|---|---|---|---|---|---|---|
| 1777568721 | 12.78° C | 71% | 1015.7 hPa | 0 mm | - | 147 W/m² | - |
| 1777559121 | 11.11° C | 78% | 1015.1 hPa | 0.25 mm | - | 35 W/m² | - |
| 1777556722 | 11.11° C | 77% | 1014.8 hPa | 0.51 mm | - | 38 W/m² | - |
| 1777553719 | 11.11° C | 78% | 1014.6 hPa | 0.25 mm | - | 20 W/m² | - |
| 1777545322 | 11.11° C | 73% | 1014.5 hPa | 0 mm | - | 0 W/m² | - |
| 1777542919 | 11.11° C | 72% | 1014.4 hPa | 0 mm | - | 0 W/m² | - |
| 1777536922 | 10° C | 67% | 1014.8 hPa | 0 mm | - | 0 W/m² | - |
| 1777534542 | 10° C | 68% | 1014.9 hPa | 0 mm | - | 0 W/m² | - |
| 1777532742 | 11.11° C | 65% | 1015.2 hPa | 0 mm | - | 0 W/m² | - |
| 1777530339 | 12.22° C | 62% | 1015.2 hPa | 0 mm | - | 0 W/m² | - |
| 1777529121 | 12.22° C | 62% | 1015.2 hPa | 0 mm | - | 0 W/m² | - |
| 1777523722 | 13.33° C | 57% | 1015.4 hPa | 0 mm | - | 0 W/m² | - |
| 1777520746 | 13.89° C | 55% | 1015.2 hPa | 0 mm | - | 0 W/m² | - |
| 1777516519 | 15° C | 52% | 1014.5 hPa | 0 mm | - | 0 W/m² | - |
| 1777515324 | 15.56° C | 52% | 1014.7 hPa | 0 mm | - | 0 W/m² | - |
| 1777514739 | 15.56° C | 52% | 1014.5 hPa | 0 mm | - | 0 W/m² | - |
| 1777507523 | 18.33° C | 45% | 1014.2 hPa | 0 mm | - | 73 W/m² | - |
| 1777506341 | 18.33° C | 44% | 1014.1 hPa | 0 mm | - | 94 W/m² | - |
| 1777505139 | 18.89° C | 44% | 1014.1 hPa | 0 mm | - | 131 W/m² | - |
| 1777504539 | 18.89° C | 43% | 1014.2 hPa | 0 mm | - | 157 W/m² | - |
| 1777500943 | 20° C | 42% | 1014.5 hPa | 0 mm | - | 268 W/m² | - |
| 1777497322 | 20.56° C | 41% | 1014.4 hPa | 0 mm | - | 335 W/m² | - |
| 1777496146 | 20.56° C | 40% | 1014.7 hPa | 0 mm | - | 334 W/m² | - |
| 1777495520 | 20.56° C | 40% | 1014.6 hPa | 0 mm | - | 445 W/m² | - |
| 1777493141 | 21.11° C | 39% | 1015.1 hPa | 0 mm | - | 556 W/m² | - |
* Rain latest hour (hover to see other rain measurements)
** Current wind speed in m/s (hover to see current wind gust speed)